WXM80 ListenWXM80 Stop

You find our weather info also at:

UK Metoffice

WeatherCloud

Weather Underground

Northeastern Weather Network

AWEKAS

Citizen Weather Observer Program (CWOP)

HAMweather, WeatherForYou, PWS Weather


Weather Underground History page Text

Daily Summary for July 20, 2017 Units:  Metric    English   Both
« Previous Day
Next Day »
Daily Weekly Monthly Yearly Custom
  High: Low: Average:
Temperature: 37.2 °C 22 °C 28.6 °C
Dew Point: 25.3 °C 20.5 °C 22.9 °C
Humidity: 96 % 43 % 74 %
Wind Speed: 11.3 km/h 0 km/h 1.3 km/h
Wind Gust: 24.1 km/h - -
Wind:- - SSW
Pressure: 1013.8 hPa 1008.7 hPa -
Precipitation: 0 mm    
Historical Graphs
 
 
Tabular Data for July 20, 2017
Time Temperature Dew Point Pressure Wind Wind Speed Wind Gust Humidity Rainfall Rate (Hourly)
00:00 25.3 °C 22.4 °C 1013.4 hPa WSW 1.1 km/h 1.9 km/h 84 % 0 mm
00:05 25.3 °C 22.4 °C 1013.4 hPa WSW 0.5 km/h 1.9 km/h 84 % 0 mm
00:10 25.3 °C 22.4 °C 1013.4 hPa WSW 0.6 km/h 1.9 km/h 84 % 0 mm
00:15 25.3 °C 22.4 °C 1013.8 hPa WSW 0.5 km/h 3.7 km/h 84 % 0 mm
00:20 25.3 °C 22.4 °C 1013.4 hPa WSW 0.2 km/h 1.9 km/h 84 % 0 mm
00:25 25.3 °C 22.4 °C 1013.4 hPa WSW 1 km/h 1.9 km/h 84 % 0 mm
00:30 25.3 °C 22.4 °C 1013.4 hPa WSW 0.8 km/h 1.9 km/h 84 % 0 mm
00:35 25.3 °C 22.4 °C 1013.4 hPa WSW 0.5 km/h 1.9 km/h 84 % 0 mm
00:40 25.3 °C 22.4 °C 1013.4 hPa WSW 0.2 km/h 1.9 km/h 84 % 0 mm
00:45 25.3 °C 22.4 °C 1013.4 hPa Calm     84 % 0 mm
00:50 25.3 °C 22.4 °C 1013.4 hPa Calm     84 % 0 mm
00:56 25.2 °C 22.3 °C 1013.4 hPa Calm   1.6 km/h 84 % 0 mm
01:01 25.2 °C 22.3 °C 1013.4 hPa Calm     84 % 0 mm
01:06 25.1 °C 22.2 °C 1013.4 hPa Calm     84 % 0 mm
01:11 25.1 °C 22.2 °C 1013.4 hPa Calm     84 % 0 mm
01:16 25 °C 22.1 °C 1013.4 hPa Calm     84 % 0 mm
01:21 24.9 °C 22 °C 1013.4 hPa Calm     84 % 0 mm
01:26 24.8 °C 21.9 °C 1013.4 hPa Calm     84 % 0 mm
01:31 24.7 °C 22.1 °C 1013.1 hPa Calm     85 % 0 mm
01:36 24.7 °C 22 °C 1013.1 hPa Calm     85 % 0 mm
01:41 24.6 °C 21.9 °C 1013.4 hPa Calm     85 % 0 mm
01:46 24.5 °C 22 °C 1013.1 hPa Calm     86 % 0 mm
01:51 24.4 °C 21.9 °C 1013.1 hPa Calm     86 % 0 mm
01:56 24.3 °C 21.8 °C 1013.1 hPa Calm     86 % 0 mm
02:01 24.3 °C 21.8 °C 1013.1 hPa Calm     86 % 0 mm
02:06 24.2 °C 21.7 °C 1013.1 hPa Calm     86 % 0 mm
02:11 24.1 °C 21.6 °C 1013.1 hPa Calm     86 % 0 mm
02:16 24.1 °C 21.8 °C 1013.1 hPa Calm     87 % 0 mm
02:21 23.9 °C 21.7 °C 1013.1 hPa Calm     87 % 0 mm
02:26 23.9 °C 21.8 °C 1013.1 hPa Calm     88 % 0 mm
02:31 23.8 °C 21.7 °C 1013.1 hPa Calm     88 % 0 mm
02:36 23.8 °C 21.7 °C 1013.1 hPa Calm     88 % 0 mm
02:41 23.7 °C 21.4 °C 1013.1 hPa Calm     87 % 0 mm
02:46 23.7 °C 21.6 °C 1013.1 hPa Calm     88 % 0 mm
02:52 23.6 °C 21.5 °C 1013.1 hPa Calm     88 % 0 mm
02:57 23.6 °C 21.4 °C 1013.1 hPa Calm     88 % 0 mm
03:02 23.5 °C 21.4 °C 1013.1 hPa Calm     88 % 0 mm
03:07 23.4 °C 21.3 °C 1013.1 hPa Calm     88 % 0 mm
03:12 23.4 °C 21.3 °C 1013.1 hPa Calm     88 % 0 mm
03:17 23.3 °C 21.2 °C 1012.8 hPa Calm     88 % 0 mm
03:22 23.3 °C 21.4 °C 1012.8 hPa Calm     89 % 0 mm
03:27 23.3 °C 21.4 °C 1012.8 hPa Calm     89 % 0 mm
03:32 23.2 °C 21.3 °C 1013.1 hPa Calm     89 % 0 mm
03:37 23.2 °C 21.3 °C 1013.1 hPa Calm     89 % 0 mm
03:42 23.2 °C 21.3 °C 1013.1 hPa Calm     89 % 0 mm
03:47 23.1 °C 21.2 °C 1013.1 hPa Calm     89 % 0 mm
03:52 23.1 °C 21.2 °C 1012.8 hPa Calm     89 % 0 mm
03:57 23.1 °C 21.3 °C 1012.8 hPa Calm     90 % 0 mm
04:02 23 °C 21.3 °C 1012.8 hPa WSW 0.2 km/h 1.9 km/h 90 % 0 mm
04:07 22.9 °C 21.2 °C 1012.8 hPa Calm     90 % 0 mm
04:12 22.9 °C 21.2 °C 1012.8 hPa Calm     90 % 0 mm
04:17 22.8 °C 21.1 °C 1012.8 hPa Calm     90 % 0 mm
04:22 22.8 °C 21.1 °C 1012.8 hPa Calm     90 % 0 mm
04:27 22.8 °C 21.1 °C 1012.8 hPa Calm     90 % 0 mm
04:32 22.7 °C 21 °C 1012.8 hPa Calm     90 % 0 mm
04:37 22.7 °C 20.9 °C 1012.8 hPa Calm     90 % 0 mm
04:42 22.6 °C 20.9 °C 1012.8 hPa Calm     90 % 0 mm
04:48 22.6 °C 20.8 °C 1012.8 hPa Calm     90 % 0 mm
04:53 22.5 °C 20.9 °C 1012.8 hPa Calm     91 % 0 mm
04:58 22.5 °C 20.9 °C 1012.8 hPa Calm     91 % 0 mm
05:03 22.4 °C 20.9 °C 1013.1 hPa Calm     91 % 0 mm
05:08 22.4 °C 20.8 °C 1012.8 hPa Calm     91 % 0 mm
05:13 22.3 °C 20.8 °C 1012.8 hPa Calm     91 % 0 mm
05:18 22.3 °C 20.9 °C 1012.4 hPa Calm     92 % 0 mm
05:23 22.2 °C 20.7 °C 1012.4 hPa Calm     91 % 0 mm
05:28 22.2 °C 20.8 °C 1012.4 hPa Calm     92 % 0 mm
05:33 22.2 °C 20.8 °C 1012.8 hPa Calm     92 % 0 mm
05:38 22.1 °C 20.7 °C 1012.8 hPa Calm     92 % 0 mm
05:40 22.1 °C 20.7 °C 1012.8 hPa Calm     92 % 0 mm
05:45 22.1 °C 20.7 °C 1012.8 hPa Calm     92 % 0 mm
05:46 22.1 °C 20.7 °C 1012.8 hPa Calm     92 % 0 mm
05:51 22.1 °C 20.7 °C 1012.4 hPa Calm   1.9 km/h 92 % 0 mm
05:56 22.1 °C 20.7 °C 1012.8 hPa Calm     92 % 0 mm
06:01 22.1 °C 20.9 °C 1012.4 hPa Calm     93 % 0 mm
06:06 22.1 °C 20.9 °C 1012.8 hPa Calm     93 % 0 mm
06:11 22 °C 20.8 °C 1012.8 hPa Calm     93 % 0 mm
06:16 22 °C 20.8 °C 1012.8 hPa Calm     93 % 0 mm
06:21 22 °C 20.8 °C 1012.8 hPa Calm     93 % 0 mm
06:26 22.1 °C 20.9 °C 1012.8 hPa Calm     93 % 0 mm
06:31 22.1 °C 21.1 °C 1012.8 hPa Calm     94 % 0 mm
06:36 22.2 °C 21.2 °C 1012.8 hPa Calm     94 % 0 mm
06:41 22.3 °C 21.5 °C 1013.1 hPa Calm     95 % 0 mm
06:46 22.6 °C 21.7 °C 1013.1 hPa Calm     95 % 0 mm
06:51 22.9 °C 22.2 °C 1013.1 hPa WSW 0.6 km/h   96 % 0 mm
06:52 22.9 °C 22.2 °C 1013.1 hPa WSW 0.6 km/h 1.9 km/h 96 % 0 mm
06:57 23.1 °C 22.4 °C 1013.1 hPa Calm     96 % 0 mm
07:02 23.2 °C 22.6 °C 1013.4 hPa Calm     96 % 0 mm
07:07 23.4 °C 22.7 °C 1013.4 hPa Calm     96 % 0 mm
07:12 23.5 °C 22.7 °C 1013.4 hPa Calm     95 % 0 mm
07:17 23.7 °C 22.7 °C 1013.4 hPa Calm   1.9 km/h 94 % 0 mm
07:22 23.8 °C 22.8 °C 1013.4 hPa Calm     94 % 0 mm
07:27 24.1 °C 22.7 °C 1013.4 hPa Calm     92 % 0 mm
07:32 24.3 °C 22.9 °C 1013.4 hPa Calm     92 % 0 mm
07:37 24.6 °C 23 °C 1013.4 hPa Calm     91 % 0 mm
07:42 24.8 °C 23.2 °C 1013.8 hPa Calm     91 % 0 mm
07:47 24.9 °C 23.2 °C 1013.8 hPa Calm     90 % 0 mm
07:52 25.2 °C 23.2 °C 1013.4 hPa Calm     89 % 0 mm
07:57 25.3 °C 23.4 °C 1013.4 hPa North 0.2 km/h 1.9 km/h 89 % 0 mm
08:02 25.4 °C 23.5 °C 1013.4 hPa Calm   1.9 km/h 89 % 0 mm
08:07 25.5 °C 23.4 °C 1013.4 hPa Calm     88 % 0 mm
08:12 25.6 °C 23.4 °C 1013.4 hPa Calm     88 % 0 mm
08:17 25.6 °C 23.7 °C 1013.4 hPa North 0.2 km/h   89 % 0 mm
08:22 25.7 °C 23.6 °C 1013.4 hPa Calm     88 % 0 mm
08:28 25.7 °C 23.6 °C 1013.4 hPa NW 0.5 km/h 1.9 km/h 88 % 0 mm
08:33 25.8 °C 23.5 °C 1013.4 hPa Calm     87 % 0 mm
08:38 25.9 °C 23.6 °C 1013.4 hPa Calm     87 % 0 mm
08:43 26 °C 23.5 °C 1013.4 hPa Calm     86 % 0 mm
08:48 26.1 °C 23.4 °C 1013.4 hPa Calm   3.7 km/h 85 % 0 mm
08:51 26.2 °C 23.6 °C 1013.4 hPa Calm   3.2 km/h 86 % 0 mm
08:56 26.3 °C 23.7 °C 1013.4 hPa Calm   1.6 km/h 86 % 0 mm
09:00 26.4 °C 23.7 °C 1013.4 hPa NE 2.4 km/h 3.7 km/h 85 % 0 mm
09:06 26.5 °C 23.6 °C 1013.4 hPa Calm   3.2 km/h 84 % 0 mm
09:10 26.6 °C 23.5 °C 1013.4 hPa Calm   3.2 km/h 83 % 0 mm
09:15 26.7 °C 23.3 °C 1013.4 hPa Calm   3.2 km/h 82 % 0 mm
09:18 26.7 °C 23.2 °C 1013.4 hPa WNW 0.2 km/h 1.9 km/h 81 % 0 mm
09:23 26.8 °C 23.2 °C 1013.4 hPa Calm   1.9 km/h 81 % 0 mm
09:28 26.8 °C 23.1 °C 1013.1 hPa Calm   1.9 km/h 80 % 0 mm
09:33 26.8 °C 23.4 °C 1013.1 hPa Calm   1.9 km/h 82 % 0 mm
09:38 26.8 °C 23.5 °C 1013.1 hPa Calm     82 % 0 mm
09:43 26.9 °C 23.6 °C 1013.1 hPa Calm   1.9 km/h 82 % 0 mm
09:48 27 °C 23.9 °C 1013.1 hPa NW 0.6 km/h 3.7 km/h 83 % 0 mm
09:53 27.2 °C 23.8 °C 1013.1 hPa NW 0.8 km/h 3.7 km/h 82 % 0 mm
09:58 27.4 °C 24.1 °C 1013.1 hPa NW 2.1 km/h 3.7 km/h 82 % 0 mm
10:03 27.7 °C 24.3 °C 1013.1 hPa NW 0.2 km/h 1.9 km/h 82 % 0 mm
10:08 28 °C 24.2 °C 1013.1 hPa NW 0.3 km/h 1.9 km/h 80 % 0 mm
10:13 28.4 °C 24.4 °C 1013.1 hPa East 0.3 km/h 1.9 km/h 79 % 0 mm
10:18 28.9 °C 24.7 °C 1013.1 hPa North 3.2 km/h 5.6 km/h 78 % 0 mm
10:23 29.3 °C 24.9 °C 1013.1 hPa North 1.4 km/h 3.2 km/h 77 % 0 mm
10:28 29.8 °C 25.3 °C 1013.1 hPa NNE 2.7 km/h 6.4 km/h 77 % 0 mm
10:33 30.2 °C 24.8 °C 1013.4 hPa NNE 5 km/h 7.4 km/h 73 % 0 mm
10:38 30.6 °C 25 °C 1013.4 hPa North 1.3 km/h 5.6 km/h 72 % 0 mm
10:43 30.7 °C 23.4 °C 1013.4 hPa North 1.1 km/h 3.2 km/h 65 % 0 mm
10:48 31.1 °C 24.5 °C 1013.1 hPa North 1.9 km/h 3.7 km/h 68 % 0 mm
10:53 31.6 °C 24.9 °C 1013.4 hPa Calm   1.9 km/h 68 % 0 mm
10:58 31.9 °C 23.7 °C 1013.1 hPa North 2.1 km/h 3.7 km/h 62 % 0 mm
11:03 32.3 °C 24.7 °C 1013.1 hPa North 0.5 km/h 5.6 km/h 64 % 0 mm
11:08 32.6 °C 23.3 °C 1013.1 hPa North 2.6 km/h 5.6 km/h 58 % 0 mm
11:13 32.6 °C 24.1 °C 1013.1 hPa East 1.6 km/h 5.6 km/h 61 % 0 mm
11:23 33 °C 24.7 °C 1013.1 hPa North 1.8 km/h 5.6 km/h 62 % 0 mm
11:29 33.3 °C 24.7 °C 1013.1 hPa North 2.4 km/h 5.6 km/h 61 % 0 mm
11:34 33.5 °C 24.4 °C 1013.1 hPa North 3.2 km/h 7.4 km/h 59 % 0 mm
11:39 33.5 °C 24.1 °C 1013.1 hPa NNE 5.6 km/h 7.4 km/h 58 % 0 mm
11:44 33.6 °C 23.6 °C 1012.8 hPa North 4.7 km/h 6.4 km/h 56 % 0 mm
11:49 33.7 °C 23.9 °C 1012.8 hPa North 1.1 km/h 3.7 km/h 57 % 0 mm
11:54 33.8 °C 23.6 °C 1012.8 hPa North 6.1 km/h 9.3 km/h 55 % 0 mm
11:59 34 °C 24.3 °C 1012.8 hPa North 1.6 km/h 5.6 km/h 57 % 0 mm
12:04 34.1 °C 23.5 °C 1012.8 hPa North 3.1 km/h 5.6 km/h 54 % 0 mm
12:09 34.2 °C 22.9 °C 1012.8 hPa NNE 2.7 km/h 3.7 km/h 52 % 0 mm
12:14 34.3 °C 23.7 °C 1012.8 hPa NNE 4 km/h 5.6 km/h 54 % 0 mm
12:19 34.4 °C 22.8 °C 1012.8 hPa NW 1.6 km/h 5.6 km/h 51 % 0 mm
12:24 34.4 °C 20.7 °C 1012.8 hPa NW 3.1 km/h 5.6 km/h 45 % 0 mm
12:29 34.4 °C 21.4 °C 1012.4 hPa NNW 2.4 km/h 5.6 km/h 47 % 0 mm
12:34 34.6 °C 22 °C 1012.4 hPa NNE 2.6 km/h 5.6 km/h 48 % 0 mm
12:40 34.6 °C 22.7 °C 1012.1 hPa NW 3.7 km/h 5.6 km/h 50 % 0 mm
12:45 34.8 °C 22.2 °C 1012.1 hPa NNW 2.3 km/h 5.6 km/h 48 % 0 mm
12:50 34.9 °C 22.6 °C 1012.1 hPa NNW 1.3 km/h 5.6 km/h 49 % 0 mm
12:55 34.8 °C 21.8 °C 1012.1 hPa North 0.6 km/h 3.7 km/h 47 % 0 mm
13:00 34.8 °C 21.4 °C 1012.1 hPa North 0.6 km/h 5.6 km/h 46 % 0 mm
13:05 34.9 °C 21.9 °C 1011.7 hPa NNE 0.6 km/h 5.6 km/h 47 % 0 mm
13:10 35.1 °C 21.7 °C 1011.4 hPa NNE 0.8 km/h 1.9 km/h 46 % 0 mm
13:15 35.1 °C 22.1 °C 1011.4 hPa NNE 2.3 km/h 5.6 km/h 47 % 0 mm
13:20 35.1 °C 22.1 °C 1011.4 hPa Calm   1.9 km/h 47 % 0 mm
13:25 35.1 °C 22.7 °C 1011.7 hPa NNE 2.9 km/h 5.6 km/h 49 % 0 mm
13:30 35.2 °C 23.5 °C 1011.4 hPa North 0.5 km/h 3.7 km/h 51 % 0 mm
13:35 35.2 °C 23.9 °C 1011.4 hPa WNW 2.9 km/h 5.6 km/h 52 % 0 mm
13:40 35.4 °C 23.4 °C 1011.4 hPa WSW 4.5 km/h 11.1 km/h 50 % 0 mm
13:45 35.5 °C 23.2 °C 1011.4 hPa WNW 3.5 km/h 7.4 km/h 49 % 0 mm
13:50 35.6 °C 23.2 °C 1011.4 hPa NW 7.6 km/h 9.3 km/h 49 % 0 mm
13:55 35.7 °C 23 °C 1011.1 hPa West 6.6 km/h 9.3 km/h 48 % 0 mm
14:01 35.9 °C 24.2 °C 1011.1 hPa NNE 6.3 km/h 8 km/h 51 % 0 mm
14:06 35.8 °C 23.4 °C 1011.1 hPa NNW 1.6 km/h 9.7 km/h 49 % 0 mm
14:11 35.9 °C 23.8 °C 1010.7 hPa North 3.2 km/h 6.4 km/h 50 % 0 mm
14:16 36.1 °C 25.3 °C 1010.7 hPa NNW 1.4 km/h 3.7 km/h 54 % 0 mm
14:21 36.2 °C 24.2 °C 1010.7 hPa NNW 2.9 km/h 7.4 km/h 50 % 0 mm
14:26 36.3 °C 24.2 °C 1010.7 hPa NNE 4.7 km/h 5.6 km/h 50 % 0 mm
14:31 36.4 °C 23.3 °C 1010.7 hPa NW 2.6 km/h 5.6 km/h 47 % 0 mm
14:36 36.6 °C 23.4 °C 1010.4 hPa NNW 1.1 km/h 7.4 km/h 47 % 0 mm
14:41 36.6 °C 24.2 °C 1010.4 hPa NNW 1.6 km/h 4.8 km/h 49 % 0 mm
14:46 36.7 °C 24.6 °C 1010.4 hPa Calm   3.2 km/h 50 % 0 mm
14:51 36.7 °C 23.6 °C 1010.4 hPa NNW 1.6 km/h 6.4 km/h 47 % 0 mm
14:56 36.7 °C 23.2 °C 1010 hPa NNW 3.2 km/h 8 km/h 46 % 0 mm
15:01 36.7 °C 24.3 °C 1010.4 hPa Calm   1.9 km/h 49 % 0 mm
15:06 36.7 °C 23.6 °C 1010.4 hPa NW 2.9 km/h 5.6 km/h 47 % 0 mm
15:11 36.8 °C 23.6 °C 1010 hPa South 1.3 km/h 5.6 km/h 47 % 0 mm
15:16 36.9 °C 23.7 °C 1010 hPa NNW 1.6 km/h 3.7 km/h 47 % 0 mm
15:21 37 °C 23.8 °C 1010 hPa West 0.2 km/h 1.9 km/h 47 % 0 mm
15:26 37.1 °C 23.6 °C 1010 hPa NNE 0.8 km/h 5.6 km/h 46 % 0 mm
15:31 37.2 °C 23.6 °C 1010 hPa NNE 0.2 km/h 1.9 km/h 46 % 0 mm
15:36 37.2 °C 23.6 °C 1010 hPa North 1.9 km/h 5.6 km/h 46 % 0 mm
15:41 37.2 °C 23.6 °C 1010 hPa NNE 4.3 km/h 5.6 km/h 46 % 0 mm
15:46 37.1 °C 23.2 °C 1010 hPa Calm     45 % 0 mm
15:51 37.1 °C 23.5 °C 1009.7 hPa ENE 0.8 km/h 3.7 km/h 46 % 0 mm
15:56 36.8 °C 22.2 °C 1010 hPa SE 3.2 km/h 7.4 km/h 43 % 0 mm
16:01 36.7 °C 24.2 °C 1010 hPa WSW 4.2 km/h 7.4 km/h 49 % 0 mm
16:06 36.6 °C 24.5 °C 1010 hPa SE 2.3 km/h 6.4 km/h 50 % 0 mm
16:11 36.4 °C 24 °C 1010 hPa SE 4.3 km/h 7.4 km/h 49 % 0 mm
16:16 36.2 °C 24.4 °C 1009.7 hPa SSW 3.9 km/h 11.3 km/h 51 % 0 mm
16:21 35.9 °C 24.6 °C 1009.7 hPa SE 3.4 km/h 7.4 km/h 52 % 0 mm
16:26 35.6 °C 25.2 °C 1009.7 hPa SSW 2.1 km/h 5.6 km/h 55 % 0 mm
16:31 35.2 °C 24.8 °C 1009.7 hPa SSE 1.1 km/h 3.2 km/h 55 % 0 mm
16:36 34.9 °C 24.8 °C 1010 hPa SE 0.2 km/h 1.9 km/h 56 % 0 mm
16:41 34.3 °C 24.2 °C 1009.7 hPa SE 4 km/h 9.3 km/h 56 % 0 mm
16:46 33.8 °C 24.7 °C 1009.7 hPa SSE 0.2 km/h 3.2 km/h 59 % 0 mm
16:51 33.6 °C 25.1 °C 1009.7 hPa SSE 2.6 km/h 2.6 km/h 61 % 0 mm
16:56 33.4 °C 25.1 °C 1009.7 hPa WSW 0.8 km/h 3.7 km/h 62 % 0 mm
17:01 33.3 °C 25.3 °C 1009.7 hPa SE 1.3 km/h 1.9 km/h 63 % 0 mm
17:06 33.2 °C 25.2 °C 1009.7 hPa South 1.3 km/h 3.7 km/h 63 % 0 mm
17:12 33 °C 25 °C 1009.4 hPa Calm   1.9 km/h 63 % 0 mm
17:17 32.8 °C 25.1 °C 1009.4 hPa SSE 0.8 km/h 3.2 km/h 64 % 0 mm
17:22 32.7 °C 24.9 °C 1009.4 hPa South 1.1 km/h 4.8 km/h 64 % 0 mm
17:27 32.5 °C 25.1 °C 1009.4 hPa South 1.6 km/h 3.7 km/h 65 % 0 mm
17:32 32.4 °C 25.2 °C 1009.4 hPa SSW 3.5 km/h 5.6 km/h 66 % 0 mm
17:37 32.3 °C 24.8 °C 1009.4 hPa SSW 1.3 km/h 5.6 km/h 65 % 0 mm
17:42 32.1 °C 24.7 °C 1009.7 hPa SSW 1.9 km/h 6.4 km/h 65 % 0 mm
17:47 32 °C 24.8 °C 1009.7 hPa SSW 1 km/h 9.3 km/h 66 % 0 mm
17:52 31.9 °C 24.7 °C 1009.7 hPa Calm   1.9 km/h 66 % 0 mm
17:57 31.8 °C 24.9 °C 1009.4 hPa SSW 1.1 km/h 3.7 km/h 67 % 0 mm
18:02 31.7 °C 24.6 °C 1009 hPa WSW 0.8 km/h 3.2 km/h 66 % 0 mm
18:07 31.6 °C 24.4 °C 1009 hPa SW 0.5 km/h 3.7 km/h 66 % 0 mm
18:12 31.4 °C 24.3 °C 1009 hPa South 0.2 km/h 1.9 km/h 66 % 0 mm
18:17 31.3 °C 24.4 °C 1008.7 hPa Calm     67 % 0 mm
18:22 31.2 °C 24.4 °C 1008.7 hPa Calm     67 % 0 mm
18:27 31.1 °C 24.5 °C 1008.7 hPa Calm     68 % 0 mm
18:32 31.1 °C 24.7 °C 1009 hPa Calm     69 % 0 mm
18:37 30.9 °C 24.6 °C 1009 hPa Calm   1.9 km/h 69 % 0 mm
18:42 30.8 °C 24.5 °C 1009 hPa South 0.8 km/h 3.7 km/h 69 % 0 mm
18:47 30.8 °C 24.7 °C 1009 hPa Calm   1.9 km/h 70 % 0 mm
18:52 30.7 °C 24.6 °C 1009 hPa Calm     70 % 0 mm
18:57 30.6 °C 24.4 °C 1009.4 hPa SW 0.8 km/h 3.7 km/h 70 % 0 mm
19:02 30.4 °C 24.3 °C 1009.4 hPa Calm     70 % 0 mm
19:08 30.4 °C 24.6 °C 1009.7 hPa WSW 1.3 km/h 3.7 km/h 71 % 0 mm
19:13 30.3 °C 24.4 °C 1009.7 hPa WSW 0.2 km/h 1.9 km/h 71 % 0 mm
19:18 30.2 °C 24.4 °C 1009.4 hPa WSW 0.2 km/h 1.9 km/h 71 % 0 mm
19:23 30.2 °C 24.6 °C 1009.4 hPa WSW 0.8 km/h 5.6 km/h 72 % 0 mm
19:28 30.1 °C 24.5 °C 1009.4 hPa WSW 0.2 km/h 1.9 km/h 72 % 0 mm
19:33 30.1 °C 24.4 °C 1009.4 hPa WSW 1.6 km/h 5.6 km/h 72 % 0 mm
19:38 30 °C 24.6 °C 1009.7 hPa SSW 0.2 km/h 5.6 km/h 73 % 0 mm
19:43 29.9 °C 24.6 °C 1009.7 hPa Calm   1.9 km/h 73 % 0 mm
19:48 29.9 °C 24.5 °C 1009.7 hPa Calm     73 % 0 mm
19:53 29.8 °C 24.4 °C 1009.7 hPa Calm   1.9 km/h 73 % 0 mm
19:58 29.8 °C 24.4 °C 1009.7 hPa Calm     73 % 0 mm
20:03 29.7 °C 24.4 °C 1009.7 hPa Calm     73 % 0 mm
20:08 29.7 °C 24.6 °C 1009.7 hPa Calm     74 % 0 mm
20:13 29.6 °C 24.5 °C 1009.7 hPa Calm     74 % 0 mm
20:15 29.6 °C 24.4 °C 1009.7 hPa Calm     74 % 0 mm
20:21 29.5 °C 24.4 °C 1009.4 hPa Calm     74 % 0 mm
20:25 29.4 °C 24.3 °C 1009.4 hPa Calm     74 % 0 mm
20:31 29.3 °C 24.4 °C 1009 hPa Calm     75 % 0 mm
20:35 29.3 °C 24.4 °C 1009 hPa SW 0.3 km/h 1.9 km/h 75 % 0 mm
20:41 29.2 °C 24.3 °C 1008.7 hPa Calm     75 % 0 mm
20:46 29.1 °C 24.4 °C 1008.7 hPa Calm     76 % 0 mm
20:51 29.1 °C 24.6 °C 1008.7 hPa Calm     77 % 0 mm
20:56 28.9 °C 24.5 °C 1008.7 hPa Calm   1.6 km/h 77 % 0 mm
21:01 28.9 °C 24.4 °C 1008.7 hPa Calm   1.9 km/h 77 % 0 mm
21:06 28.8 °C 24.3 °C 1008.7 hPa Calm   1.6 km/h 77 % 0 mm
21:11 28.7 °C 24.3 °C 1008.7 hPa SW 0.3 km/h 1.9 km/h 77 % 0 mm
21:16 28.6 °C 24.2 °C 1008.7 hPa Calm   3.2 km/h 77 % 0 mm
21:21 28.6 °C 24.1 °C 1008.7 hPa Calm   1.6 km/h 77 % 0 mm
21:26 28.4 °C 24 °C 1008.7 hPa Calm   1.6 km/h 77 % 0 mm
21:31 28.4 °C 23.9 °C 1008.7 hPa SW 1.6 km/h 8 km/h 77 % 0 mm
21:36 28.3 °C 23.2 °C 1009 hPa WSW 4.8 km/h 24.1 km/h 74 % 0 mm
21:41 28.3 °C 23 °C 1009 hPa WSW 4.8 km/h 14.5 km/h 73 % 0 mm
21:46 28.3 °C 23 °C 1009 hPa WSW 4.8 km/h 12.9 km/h 73 % 0 mm
21:51 28.3 °C 22.7 °C 1009 hPa West 3.2 km/h 8 km/h 72 % 0 mm
21:56 28.3 °C 22.7 °C 1009 hPa West 4.8 km/h 14.5 km/h 72 % 0 mm
22:01 28.3 °C 22.7 °C 1009 hPa SSW 3.4 km/h 13 km/h 72 % 0 mm
22:06 28.2 °C 22.7 °C 1009.4 hPa SW 6.4 km/h 22.2 km/h 72 % 0 mm
22:11 28.2 °C 22.6 °C 1009.4 hPa WSW 6.1 km/h 22.2 km/h 72 % 0 mm
22:16 28.1 °C 22.6 °C 1009.4 hPa WNW 6.3 km/h 13 km/h 72 % 0 mm
22:21 27.9 °C 22.2 °C 1009.4 hPa WNW 11.3 km/h 22.2 km/h 71 % 0 mm
22:24 27.8 °C 21.8 °C 1009.4 hPa SW 9.8 km/h 20.4 km/h 70 % 0 mm
22:29 27.7 °C 21.7 °C 1009.4 hPa SW 7.7 km/h 18.5 km/h 70 % 0 mm
22:34 27.6 °C 21.3 °C 1009.4 hPa WSW 4.2 km/h 14.8 km/h 69 % 0 mm
22:39 27.4 °C 21.2 °C 1009.4 hPa West 2.1 km/h 14.8 km/h 69 % 0 mm
22:44 27.3 °C 21.1 °C 1009.4 hPa SW 8.9 km/h 13 km/h 69 % 0 mm
22:49 27.2 °C 21.2 °C 1009 hPa WSW 6.4 km/h 13 km/h 70 % 0 mm
22:54 27 °C 21.1 °C 1009.4 hPa SSW 5.1 km/h 11.1 km/h 70 % 0 mm
22:59 26.9 °C 20.9 °C 1009 hPa SW 6.8 km/h 11.1 km/h 70 % 0 mm
23:04 26.8 °C 20.8 °C 1009.4 hPa WSW 6.8 km/h 11.1 km/h 70 % 0 mm
23:09 26.7 °C 20.7 °C 1009.4 hPa SW 2.9 km/h 5.6 km/h 70 % 0 mm
23:14 26.6 °C 20.9 °C 1009.4 hPa WSW 5 km/h 9.7 km/h 71 % 0 mm
23:19 26.5 °C 20.6 °C 1009.4 hPa West 7.7 km/h 11.1 km/h 70 % 0 mm
23:24 26.4 °C 20.6 °C 1009.4 hPa SW 4.7 km/h 7.4 km/h 70 % 0 mm
23:29 26.3 °C 20.7 °C 1009 hPa WSW 5.6 km/h 11.1 km/h 71 % 0 mm
23:34 26.3 °C 20.6 °C 1009 hPa WSW 2.1 km/h 6.4 km/h 71 % 0 mm
23:39 26.2 °C 20.6 °C 1009.4 hPa WSW 7.6 km/h 11.1 km/h 71 % 0 mm
23:44 26.2 °C 20.5 °C 1009.4 hPa WSW 1.9 km/h 3.7 km/h 71 % 0 mm
23:49 26.2 °C 20.7 °C 1009.4 hPa West 6 km/h 9.7 km/h 72 % 0 mm
23:54 26.1 °C 20.7 °C 1009.4 hPa WSW 3.1 km/h 13 km/h 72 % 0 mm
23:59 26.1 °C 20.6 °C 1009 hPa WSW 1.1 km/h 5.6 km/h 72 % 0 mm
Crab Meadow Weather
Compliments of Weather Underground - 3 mb

Script developed by  Jim McMurry - jmcmurry@mwt.net Adapted for the template by  Wim van der Kuil - Leuven-Template.eu

Weather Terms: Tornado Warning - Strong rotation in a thunderstorm is indicated by Doppler radar or a tornado is sighted by skywarn spotters. These warnings are issued on a county by county basis by the local Weather Forecast office in Upton.